Погода в Эссойле

Россия / Республика Карелия     61°50′49″N   33°12′40″E
темп.,
°C
ветер,
м/с
пор.,
м/с
влажн.,
%
обл.,
%
осадки,
мм/ч
давл.,
гПа
погр.,
м
7 августа, вс
вс700:00+13зюз2896100 5.0 1012405
03:00+13ююз4996100 5.8 1012391
06:00+13зюз41092100 0.1 1013809
09:00+14зюз5973100 0.1 1015834
12:00+18зюз475098 0.0 10151667
15:00+19зюз584555 0.0 10162115
18:00+17зюз3757100 0.0 10171314
21:00+13юз26767 0.1 1018123
8 августа, пн
пн800:00+11юз25875 0.0 1019109
03:00+10юз25905 0.0 1020106
06:00+11ююз258531 0.0 1021131
09:00+17юз3662100 0.0 1021690
12:00+16юз3677100 1.3 1022819
15:00+17юз3572100 2.2 1022713
18:00+17юз2372100 0.3 1022344
21:00+13зюз2389100 1.1 102360
9 августа, вт
вт900:00+12вюв118998 0.2 102417
03:00+12ю1191100 0.2 102410
06:00+12юз009075 0.0 102512
09:00+14св118252 0.6 102561
12:00+16св237331 1.4 1025751
15:00+19с244694 1.9 10252073
18:00+18с345041 0.0 10241108
21:00+12ссз22738 0.0 102516
10 августа, ср
ср1000:00+10с11864 0.0 102510
03:00+9ссз11930 0.0 102510
06:00+10с00905 0.0 102418
09:00+16ссз116784 0.0 1024427
12:00+20сз22475 0.0 10231421
15:00+22з233823 0.0 10212073
18:00+21з3345100 0.0 10211376
21:00+14зюз267369 0.0 1021109
11 августа, чт
чт1100:00+11юз257864 0.0 102286
03:00+11ююз2483100 0.0 102176
06:00+14ююз288897 0.0 1021224
09:00+17зюз3975100 0.0 1020584
12:00+20юз5962100 0.0 10191030
15:00+22юз51057100 0.0 10181277
18:00+21юз51061100 0.0 10161099
21:00+17юз51376100 0.1 1016635